SCP
0 0 0 0 0 0 0 0 0 0 0 0 0 0 0 0 0 0 0 0 0 0 0 0 0 0 0 0 0 0 0 0 0 0 0 0 0 0 0 0 0 0 0 0
0 0 0 0 0 0 0 0 0 0 0 0 0 0 0 0 0 0 0 0 0 0 0 0 0 0 0 0 0 0 0 0 0 0 0 0 0 0 0 0 0 0 0 0
0 0 0 0 0 0 0 0 0 0 0 0 0 0 0 0 0 0 0 0 0 0 0 0 0 0 0 0 0 0 0 0 0 0 0 0 0 0 0 0 0 0 0 0
0 0 0 0 0 0 0 0 0 0 0 0 0 0 0 0 0 0 0 0 0 0 0 0 0 0 0 0 0 0 0 0 0 0 0 0 0 0 0 0 0 0 0 0
0 0 0 0 0 0 0 0 0 0 0 0 0 0 0 0 0 0 0 0 0 0 0 0 0 0 0 0 0 0 0 0 0 0 0 0 0 0 0 0 0 0 0 0
0 0 0 0 0 0 0 0 0 0 0 0 0 0 0 0 0 0 0 0 0 0 0 0 0 0 0 0 0 0 0 0 0 0 0 0 0 0 0 0 0 0 0 0
0 0 0 0 0 0 0 0 0 0 0 0 0 0 0 0 0 0 0 0 0 0 0 0 0 0 0 0 0 0 0 0 0 0 0 0 0 0 0 0 0 0 0 0
0 0 0 0 0 0 0 0 0 0 0 0 0 0 0 0 0 0 0 0 0 0 0 0 0 0 0 0 0 0 0 0 0 0 0 0 0 0 0 0 0 0 0 0
0 0 0 0 0 0 0 0 0 0 0 0 0 0 0 0 0 0 0 0 0 0 0 0 0 0 0 0 0 0 0 0 0 0 0 0 0 0 0 0 0 0 0 0
0 0 0 0 0 0 0 0 0 0 0 0 0 0 0 0 0 0 0 0 0 0 0 0 0 0 0 0 0 0 0 0 0 0 0 0 0 0 0 0 0 0 0 0
0 0 0 0 0 0 0 0 0 0 0 0 0 0 0 0 0 0 0 0 0 0 0 0 0 0 0 0 0 0 0 0 0 0 0 0 0 0 0 0 0 0 0 0
0 0 0 0 0 0 0 0 0 0 0 0 0 0 0 0 0 0 0 0 0 0 0 0 0 0 0 0 0 0 0 0 0 0 0 0 0 0 0 0 0 0 0 0
0 0 0 0 0 0 0 0 0 0 0 0 0 0 0 0 0 0 0 0 0 0 0 0 0 0 0 0 0 0 0 0 0 0 0 0 0 0 0 0 0 0 0 0
-0 0 0 0 0 0 0 0 0 0 0 0 0 0 0 0 0 0 0 0 0 0 0 0 0 0 0 0 0 0 0 0 0 0 0 0 0 0 0 0 0 0 0 0
0 -0 0 0 0 0 0 0 0 0 0 0 0 0 0 0 0 0 0 0 0 0 0 0 0 0 0 0 0 0 0 0 0 0 0 0 0 0 0 0 0 0 0 0
-0 -0 0 0 0 0 0 0 0 0 0 0 0 0 0 0 0 0 0 0 0 0 0 0 0 0 0 0 0 0 0 0 0 0 0 0 0 0 0 0 0 0 0 0
-0 0 0 0 0 0 0 0 0 0 0 0 0 0 0 0 0 0 0 0 0 0 0 0 0 0 0 0 0 0 0 0 0 0 0 0 0 0 0 0 0 0 0 0
-0 0 -0 -0 -0 0 0 0 -0 -0 0 0 0 0 0 0 0 0 0 0 0 0 0 0 0 0 0 0 0 0 0 0 0 0 0 0 0 0 0 0 0 0 0 -0
-0 -0 -0 0 0 0 -0 -0 -0 0 0 0 0 0 0 0 0 0 0 0 0 0 0 0 0 0 0 0 0 -0 0 0 0 0 0 0 0 0 0 0 0 -0 -0 -0
-0 0 0 0 -0 -0 -0 -0 0 0 0 0 0 0 0 -0 0 0 0 0 0 0 0 0 0 0 -0 -0 0 0 0 0 0 0 0 0 0 0 0 0 -0 -0 -0 -0
-0 0 0 0 -0 -0 -0 0 0 0 0 0 0 0 0 0 0 0 0 0 0 0 0 0 0 0 -0 -0 0 0 0 0 0 0 0 0 0 0 0 -0 -0 -0 -0 -0
-0 -0 0 0 -0 0 0 0 0 0 0 0 -0 -0 0 0 0 0 0 0 0 -0 -0 -0 0 0 -0 0 0 0 0 0 0 0 0 0 0 -0 -0 -0 -0 -0 -0 0
-0 0 0 0 0 0 0 0 0 0 0 0 0 -0 0 0 0 0 0 -0 -0 -0 0 0 0 0 0 0 0 0 0 0 0 -0 -0 -0 0 0 0 -0 -0 -0 0 0
0 0 0 0 0 0 0 -0 -0 0 0 -0 -0 -0 -0 0 0 -0 -0 0 0 0 0 -0 -0 0 0 0 0 0 0 0 0 0 -0 -0 0 0 0 -0 -0 -0 0 0
0 0 0 0 0 0 0 0 -0 -0 -0 -0 0 -0 -0 0 0 0 0 0 0 0 -0 -0 0 0 0 0 0 0 0 0 0 0 0 0 0 0 -0 -0 0 0 0 0
0 0 0 0 0 0 0 0 -0 0 0 0 0 -0 0 0 0 0 0 0 0 -0 -0 0 0 0 -0 -0 0 0 0 0 0 -0 -0 -0 -0 -0 -0 -0 0 0 0 0
0 0 0 0 0 0 -0 0 0 0 0 0 0 0 0 0 0 0 -0 0 -0 0 0 0 0 -0 -0 -0 0 0 0 0 0 0 -0 -0 -0 -0 -0 0 0 0 -0 -0
Wind_Speed_500mb
66 63 49 46 48 56 38 13 5 26 37 8 7 6 5 9 31 17 2 5 10 8 8 7 6 10 3 8 3 6 2 7 3 8 12 3 5 2 7 8 7 4 7 11
66 56 40 40 40 44 51 34 14 26 39 3 5 4 6 4 8 9 5 9 10 5 5 8 8 11 4 12 8 8 1 4 5 15 7 11 11 5 5 7 4 11 6 6
56 44 35 34 34 34 38 13 6 6 35 11 4 3 6 1 13 12 11 7 10 8 6 8 5 8 4 10 11 14 13 5 11 11 3 2 6 13 7 7 6 5 20 16
39 36 33 31 30 26 29 7 5 9 5 4 14 6 6 4 8 7 11 12 15 8 6 4 7 10 10 16 14 10 8 8 2 5 9 7 11 21 24 20 14 17 15 30
37 34 32 28 27 23 8 8 7 16 8 21 14 5 3 3 8 5 7 12 11 16 10 6 5 5 3 4 2 6 8 6 5 5 13 16 19 27 29 32 30 30 32 41
37 30 29 26 22 18 7 10 8 8 9 7 4 9 5 7 10 19 23 13 12 16 6 9 9 5 7 8 10 5 7 9 5 7 6 12 17 14 13 15 21 17 28 7
36 30 26 24 19 16 8 6 13 7 6 5 6 16 15 14 7 11 10 19 10 6 5 16 19 23 27 21 13 17 12 10 5 5 5 5 12 16 19 19 8 8 14 9
33 31 26 20 20 16 13 7 8 6 5 8 12 23 8 20 19 13 22 23 17 8 8 7 10 7 3 10 16 16 14 10 5 4 6 11 13 6 8 7 2 3 3 7
27 27 25 16 20 16 13 7 10 5 1 2 12 5 14 6 6 10 16 19 15 9 6 5 0 4 4 6 4 6 12 7 7 6 7 10 11 8 11 2 6 7 8 7
26 23 18 14 17 17 13 12 4 5 4 1 11 8 5 7 6 7 8 7 9 10 4 4 2 6 6 2 11 7 6 3 19 14 8 10 9 14 3 3 7 27 20 3
23 20 15 15 16 13 10 7 9 5 7 18 11 1 4 7 8 6 5 6 8 6 5 4 1 2 5 5 6 8 10 9 6 4 3 13 10 13 4 6 12 8 4 11
18 17 13 10 8 7 8 4 3 7 9 12 16 15 11 12 4 6 6 12 4 4 5 5 4 4 5 3 4 5 2 9 6 11 10 8 12 7 6 7 8 13 17 21
15 12 10 8 6 6 7 9 7 8 9 23 26 27 8 11 20 23 8 8 9 8 8 5 2 3 4 2 7 5 9 6 6 3 8 16 9 6 10 18 20 19 22 34
13 10 11 11 8 6 9 8 6 5 5 4 10 10 13 6 12 27 29 14 14 10 9 7 2 3 2 5 7 5 11 10 4 8 8 14 11 16 20 14 17 27 38 33
9 9 10 10 10 7 10 13 11 12 7 5 18 37 5 19 18 24 34 28 18 9 8 5 5 6 2 6 4 8 13 12 8 9 12 15 28 20 19 27 36 34 39 29
11 10 7 9 12 12 11 3 9 9 24 6 6 13 5 18 29 29 32 17 12 9 9 6 6 7 2 4 6 16 17 11 7 26 20 20 22 25 20 30 42 19 13 14
6 6 9 14 14 15 7 4 8 13 17 3 8 11 6 14 32 23 23 22 8 6 8 8 5 7 11 4 9 10 30 43 38 13 12 13 20 19 28 13 15 15 18 25
12 13 16 16 13 14 13 14 12 3 9 3 2 7 7 14 11 10 11 13 10 7 8 8 8 6 12 9 26 38 36 23 15 8 6 21 22 10 21 18 19 25 29 34
16 15 18 8 4 3 1 3 2 9 6 3 5 4 3 4 9 10 7 8 3 4 4 5 7 6 10 15 25 26 8 11 12 16 16 2 13 20 21 17 25 29 32 41
18 7 3 2 5 8 6 8 5 12 5 7 5 8 5 14 8 3 6 5 3 4 7 8 6 8 41 41 36 23 9 8 6 12 15 17 20 17 13 18 22 29 37 46
3 1 1 3 16 6 3 3 2 4 4 10 12 21 4 6 7 5 5 4 5 4 4 6 4 5 5 17 8 23 5 9 11 17 18 19 16 15 16 22 29 37 43 47
9 5 1 12 5 2 2 5 5 8 7 11 9 12 17 6 4 8 6 4 4 8 11 5 4 4 6 20 18 11 15 22 19 17 20 19 17 19 25 28 33 40 37 49
4 1 1 1 2 2 6 7 6 6 9 15 15 5 6 5 5 8 5 4 8 6 6 5 2 16 7 19 19 27 23 21 18 20 18 16 17 24 28 31 32 26 45 48
3 2 3 4 6 9 7 5 4 6 15 37 29 10 5 4 5 4 4 7 3 6 5 3 6 12 18 28 29 26 27 23 23 22 20 21 23 19 23 36 24 25 42 55
3 4 5 9 15 17 19 11 15 2 23 24 19 8 5 1 3 4 3 5 8 3 2 4 9 26 36 33 29 28 26 25 26 26 24 26 26 17 28 42 21 29 40 58
4 6 6 18 10 16 20 11 13 15 18 14 10 5 4 5 4 7 10 5 2 4 4 17 38 37 33 30 27 27 26 25 25 30 33 25 40 26 28 45 25 37 36 64
5 8 18 34 30 14 11 13 8 16 15 2 3 7 7 5 4 5 2 1 4 8 26 40 37 33 29 25 24 28 24 28 22 21 26 29 40 36 27 50 33 37 38 59
Wind_Direction_500mb
321 326 324 327 329 332 343 352 296 179 156 120 192 203 238 351 311 278 251 110 68 76 53 75 102 150 69 85 83 78 37 125 249 240 277 53 162 48 88 137 265 211 172 256
316 321 319 324 330 340 341 326 278 179 184 180 243 231 345 282 238 329 57 55 77 87 114 95 81 107 177 92 77 135 103 46 35 339 36 21 68 75 130 114 113 214 236 248
315 320 316 318 326 332 335 306 315 297 208 251 287 240 201 120 214 245 71 105 79 74 69 44 131 109 62 108 109 122 86 122 157 197 219 74 315 321 292 211 217 222 238 272
319 320 314 315 321 326 324 256 267 9 338 314 324 281 188 195 171 54 48 48 53 110 96 57 85 43 22 29 101 59 93 171 336 280 295 330 295 298 289 262 236 227 281 263
322 320 316 312 323 329 309 312 357 341 308 325 336 298 198 127 84 67 67 99 95 64 82 39 79 109 126 187 25 74 350 134 113 263 268 282 286 266 261 263 256 264 265 272
321 320 322 314 321 339 305 343 294 303 306 331 321 317 301 120 115 53 88 96 92 63 42 4 331 286 227 200 146 125 122 131 107 255 47 344 298 256 249 250 246 249 259 299
325 324 318 318 309 325 325 329 338 329 295 356 346 330 352 112 65 122 56 72 89 138 334 311 294 262 250 225 210 153 143 142 129 242 44 215 247 315 280 252 84 79 80 29
327 329 325 311 304 298 296 307 326 331 293 334 328 356 5 95 78 79 72 66 91 52 29 32 351 354 68 240 213 183 149 131 145 198 200 299 302 36 3 348 102 21 37 350
327 327 325 314 311 290 283 249 260 269 302 4 322 329 16 62 58 55 102 77 61 64 82 84 125 259 278 153 110 237 143 122 149 176 187 226 234 355 321 131 255 343 355 359
324 323 322 295 302 304 284 238 275 253 288 278 32 35 3 30 46 97 61 30 44 46 58 82 175 264 302 235 147 153 134 118 217 208 229 268 260 315 76 182 237 319 310 351
326 324 312 291 298 300 295 270 267 269 255 282 296 291 64 53 57 119 185 73 1 34 74 169 219 24 280 37 160 174 187 174 204 159 220 266 355 322 163 213 232 220 333 317
332 337 341 339 323 291 292 291 279 267 268 268 274 256 251 246 121 132 122 120 108 50 86 23 47 304 345 37 281 346 182 185 182 192 219 244 316 239 225 275 262 263 287 305
328 325 323 315 313 315 290 276 311 340 317 295 280 273 249 257 240 209 155 144 145 107 75 122 43 260 97 254 251 340 329 164 192 166 252 250 257 205 268 278 289 288 295 302
318 318 327 319 291 270 296 297 300 288 310 315 293 311 254 233 235 203 198 199 155 170 100 83 100 238 50 251 250 205 223 325 251 254 264 334 189 316 286 292 285 281 292 288
308 310 316 321 335 297 289 285 269 261 247 293 295 311 279 214 180 170 192 200 189 150 111 112 206 253 282 283 292 250 202 214 180 237 207 233 251 277 288 298 299 297 297 291
296 305 333 330 317 317 320 10 43 234 216 306 304 318 346 170 188 190 183 182 179 147 140 153 218 265 247 265 257 254 258 149 297 254 255 236 269 277 296 300 313 338 339 321
8 355 317 298 292 291 273 316 351 5 186 207 305 313 343 193 183 148 148 164 142 149 148 189 215 247 209 250 249 249 273 290 313 224 222 253 264 288 326 23 347 342 328 329
326 319 315 298 281 280 281 277 278 86 156 208 323 275 310 146 147 107 147 140 159 197 194 178 202 240 211 248 249 269 286 292 214 228 285 292 302 24 8 356 345 340 338 334
320 316 325 305 306 227 297 209 270 235 209 232 204 267 274 29 61 100 98 138 134 210 219 219 196 218 226 228 251 281 230 179 204 238 269 81 20 4 360 351 344 346 344 335
342 316 301 38 118 147 141 138 166 191 225 218 254 268 232 156 141 114 108 137 194 233 219 178 213 251 251 258 255 261 195 225 277 333 7 32 18 22 30 12 359 355 345 341
332 272 323 170 161 160 124 89 242 198 250 221 229 221 227 43 141 126 139 157 185 257 182 204 215 264 264 303 234 199 199 277 23 94 63 48 34 41 21 6 359 354 350 352
323 277 4 172 201 227 215 202 196 207 236 197 193 210 187 107 116 108 152 197 169 248 161 228 252 354 178 111 114 110 69 86 78 63 52 40 42 29 19 8 4 359 3 357
349 39 49 140 157 261 235 213 215 224 211 182 156 71 89 104 90 90 107 175 233 198 216 231 122 194 181 78 80 103 101 90 70 43 48 57 35 17 18 15 7 9 9 359
307 225 251 211 191 239 217 282 268 303 129 127 121 74 87 93 68 123 155 235 266 249 233 163 223 196 93 111 115 99 86 75 60 71 58 53 42 29 22 15 13 12 8 6
288 270 264 230 249 316 266 259 260 225 144 128 101 93 105 51 124 193 225 232 232 250 51 186 164 121 120 111 103 94 94 74 82 59 61 56 33 37 26 20 38 12 13 16
241 240 292 293 318 8 357 243 138 149 149 116 101 125 165 187 209 201 216 248 341 139 199 138 132 126 110 109 101 100 98 83 93 69 64 61 42 44 38 32 45 25 18 22
251 239 253 265 274 272 260 235 215 193 160 195 139 185 202 152 222 223 186 212 170 218 126 141 131 114 112 121 110 111 109 86 98 81 66 65 47 52 49 37 51 34 27 26
Wind_Speed_850mb
66 63 49 46 48 56 38 13 5 26 37 8 7 6 5 9 31 17 2 5 10 8 8 7 6 10 3 8 3 6 2 7 3 8 12 3 5 2 7 8 7 4 7 11
66 56 40 40 40 44 51 34 14 26 39 3 5 4 6 4 8 9 5 9 10 5 5 8 8 11 4 12 8 8 1 4 5 15 7 11 11 5 5 7 4 11 6 6
56 44 35 34 34 34 38 13 6 6 35 11 4 3 6 1 13 12 11 7 10 8 6 8 5 8 4 10 11 14 13 5 11 11 3 2 6 13 7 7 6 5 20 16
39 36 33 31 30 26 29 7 5 9 5 4 14 6 6 4 8 7 11 12 15 8 6 4 7 10 10 16 14 10 8 8 2 5 9 7 11 21 24 20 14 17 15 30
37 34 32 28 27 23 8 8 7 16 8 21 14 5 3 3 8 5 7 12 11 16 10 6 5 5 3 4 2 6 8 6 5 5 13 16 19 27 29 32 30 30 32 41
37 30 29 26 22 18 7 10 8 8 9 7 4 9 5 7 10 19 23 13 12 16 6 9 9 5 7 8 10 5 7 9 5 7 6 12 17 14 13 15 21 17 28 7
36 30 26 24 19 16 8 6 13 7 6 5 6 16 15 14 7 11 10 19 10 6 5 16 19 23 27 21 13 17 12 10 5 5 5 5 12 16 19 19 8 8 14 9
33 31 26 20 20 16 13 7 8 6 5 8 12 23 8 20 19 13 22 23 17 8 8 7 10 7 3 10 16 16 14 10 5 4 6 11 13 6 8 7 2 3 3 7
27 27 25 16 20 16 13 7 10 5 1 2 12 5 14 6 6 10 16 19 15 9 6 5 0 4 4 6 4 6 12 7 7 6 7 10 11 8 11 2 6 7 8 7
26 23 18 14 17 17 13 12 4 5 4 1 11 8 5 7 6 7 8 7 9 10 4 4 2 6 6 2 11 7 6 3 19 14 8 10 9 14 3 3 7 27 20 3
23 20 15 15 16 13 10 7 9 5 7 18 11 1 4 7 8 6 5 6 8 6 5 4 1 2 5 5 6 8 10 9 6 4 3 13 10 13 4 6 12 8 4 11
18 17 13 10 8 7 8 4 3 7 9 12 16 15 11 12 4 6 6 12 4 4 5 5 4 4 5 3 4 5 2 9 6 11 10 8 12 7 6 7 8 13 17 21
15 12 10 8 6 6 7 9 7 8 9 23 26 27 8 11 20 23 8 8 9 8 8 5 2 3 4 2 7 5 9 6 6 3 8 16 9 6 10 18 20 19 22 34
13 10 11 11 8 6 9 8 6 5 5 4 10 10 13 6 12 27 29 14 14 10 9 7 2 3 2 5 7 5 11 10 4 8 8 14 11 16 20 14 17 27 38 33
9 9 10 10 10 7 10 13 11 12 7 5 18 37 5 19 18 24 34 28 18 9 8 5 5 6 2 6 4 8 13 12 8 9 12 15 28 20 19 27 36 34 39 29
11 10 7 9 12 12 11 3 9 9 24 6 6 13 5 18 29 29 32 17 12 9 9 6 6 7 2 4 6 16 17 11 7 26 20 20 22 25 20 30 42 19 13 14
6 6 9 14 14 15 7 4 8 13 17 3 8 11 6 14 32 23 23 22 8 6 8 8 5 7 11 4 9 10 30 43 38 13 12 13 20 19 28 13 15 15 18 25
12 13 16 16 13 14 13 14 12 3 9 3 2 7 7 14 11 10 11 13 10 7 8 8 8 6 12 9 26 38 36 23 15 8 6 21 22 10 21 18 19 25 29 34
16 15 18 8 4 3 1 3 2 9 6 3 5 4 3 4 9 10 7 8 3 4 4 5 7 6 10 15 25 26 8 11 12 16 16 2 13 20 21 17 25 29 32 41
18 7 3 2 5 8 6 8 5 12 5 7 5 8 5 14 8 3 6 5 3 4 7 8 6 8 41 41 36 23 9 8 6 12 15 17 20 17 13 18 22 29 37 46
3 1 1 3 16 6 3 3 2 4 4 10 12 21 4 6 7 5 5 4 5 4 4 6 4 5 5 17 8 23 5 9 11 17 18 19 16 15 16 22 29 37 43 47
9 5 1 12 5 2 2 5 5 8 7 11 9 12 17 6 4 8 6 4 4 8 11 5 4 4 6 20 18 11 15 22 19 17 20 19 17 19 25 28 33 40 37 49
4 1 1 1 2 2 6 7 6 6 9 15 15 5 6 5 5 8 5 4 8 6 6 5 2 16 7 19 19 27 23 21 18 20 18 16 17 24 28 31 32 26 45 48
3 2 3 4 6 9 7 5 4 6 15 37 29 10 5 4 5 4 4 7 3 6 5 3 6 12 18 28 29 26 27 23 23 22 20 21 23 19 23 36 24 25 42 55
3 4 5 9 15 17 19 11 15 2 23 24 19 8 5 1 3 4 3 5 8 3 2 4 9 26 36 33 29 28 26 25 26 26 24 26 26 17 28 42 21 29 40 58
4 6 6 18 10 16 20 11 13 15 18 14 10 5 4 5 4 7 10 5 2 4 4 17 38 37 33 30 27 27 26 25 25 30 33 25 40 26 28 45 25 37 36 64
5 8 18 34 30 14 11 13 8 16 15 2 3 7 7 5 4 5 2 1 4 8 26 40 37 33 29 25 24 28 24 28 22 21 26 29 40 36 27 50 33 37 38 59
Wind_Direction_850mb
321 326 324 327 329 332 343 352 296 179 156 120 192 203 238 351 311 278 251 110 68 76 53 75 102 150 69 85 83 78 37 125 249 240 277 53 162 48 88 137 265 211 172 256
316 321 319 324 330 340 341 326 278 179 184 180 243 231 345 282 238 329 57 55 77 87 114 95 81 107 177 92 77 135 103 46 35 339 36 21 68 75 130 114 113 214 236 248
315 320 316 318 326 332 335 306 315 297 208 251 287 240 201 120 214 245 71 105 79 74 69 44 131 109 62 108 109 122 86 122 157 197 219 74 315 321 292 211 217 222 238 272
319 320 314 315 321 326 324 256 267 9 338 314 324 281 188 195 171 54 48 48 53 110 96 57 85 43 22 29 101 59 93 171 336 280 295 330 295 298 289 262 236 227 281 263
322 320 316 312 323 329 309 312 357 341 308 325 336 298 198 127 84 67 67 99 95 64 82 39 79 109 126 187 25 74 350 134 113 263 268 282 286 266 261 263 256 264 265 272
321 320 322 314 321 339 305 343 294 303 306 331 321 317 301 120 115 53 88 96 92 63 42 4 331 286 227 200 146 125 122 131 107 255 47 344 298 256 249 250 246 249 259 299
325 324 318 318 309 325 325 329 338 329 295 356 346 330 352 112 65 122 56 72 89 138 334 311 294 262 250 225 210 153 143 142 129 242 44 215 247 315 280 252 84 79 80 29
327 329 325 311 304 298 296 307 326 331 293 334 328 356 5 95 78 79 72 66 91 52 29 32 351 354 68 240 213 183 149 131 145 198 200 299 302 36 3 348 102 21 37 350
327 327 325 314 311 290 283 249 260 269 302 4 322 329 16 62 58 55 102 77 61 64 82 84 125 259 278 153 110 237 143 122 149 176 187 226 234 355 321 131 255 343 355 359
324 323 322 295 302 304 284 238 275 253 288 278 32 35 3 30 46 97 61 30 44 46 58 82 175 264 302 235 147 153 134 118 217 208 229 268 260 315 76 182 237 319 310 351
326 324 312 291 298 300 295 270 267 269 255 282 296 291 64 53 57 119 185 73 1 34 74 169 219 24 280 37 160 174 187 174 204 159 220 266 355 322 163 213 232 220 333 317
332 337 341 339 323 291 292 291 279 267 268 268 274 256 251 246 121 132 122 120 108 50 86 23 47 304 345 37 281 346 182 185 182 192 219 244 316 239 225 275 262 263 287 305
328 325 323 315 313 315 290 276 311 340 317 295 280 273 249 257 240 209 155 144 145 107 75 122 43 260 97 254 251 340 329 164 192 166 252 250 257 205 268 278 289 288 295 302
318 318 327 319 291 270 296 297 300 288 310 315 293 311 254 233 235 203 198 199 155 170 100 83 100 238 50 251 250 205 223 325 251 254 264 334 189 316 286 292 285 281 292 288
308 310 316 321 335 297 289 285 269 261 247 293 295 311 279 214 180 170 192 200 189 150 111 112 206 253 282 283 292 250 202 214 180 237 207 233 251 277 288 298 299 297 297 291
296 305 333 330 317 317 320 10 43 234 216 306 304 318 346 170 188 190 183 182 179 147 140 153 218 265 247 265 257 254 258 149 297 254 255 236 269 277 296 300 313 338 339 321
8 355 317 298 292 291 273 316 351 5 186 207 305 313 343 193 183 148 148 164 142 149 148 189 215 247 209 250 249 249 273 290 313 224 222 253 264 288 326 23 347 342 328 329
326 319 315 298 281 280 281 277 278 86 156 208 323 275 310 146 147 107 147 140 159 197 194 178 202 240 211 248 249 269 286 292 214 228 285 292 302 24 8 356 345 340 338 334
320 316 325 305 306 227 297 209 270 235 209 232 204 267 274 29 61 100 98 138 134 210 219 219 196 218 226 228 251 281 230 179 204 238 269 81 20 4 360 351 344 346 344 335
342 316 301 38 118 147 141 138 166 191 225 218 254 268 232 156 141 114 108 137 194 233 219 178 213 251 251 258 255 261 195 225 277 333 7 32 18 22 30 12 359 355 345 341
332 272 323 170 161 160 124 89 242 198 250 221 229 221 227 43 141 126 139 157 185 257 182 204 215 264 264 303 234 199 199 277 23 94 63 48 34 41 21 6 359 354 350 352
323 277 4 172 201 227 215 202 196 207 236 197 193 210 187 107 116 108 152 197 169 248 161 228 252 354 178 111 114 110 69 86 78 63 52 40 42 29 19 8 4 359 3 357
349 39 49 140 157 261 235 213 215 224 211 182 156 71 89 104 90 90 107 175 233 198 216 231 122 194 181 78 80 103 101 90 70 43 48 57 35 17 18 15 7 9 9 359
307 225 251 211 191 239 217 282 268 303 129 127 121 74 87 93 68 123 155 235 266 249 233 163 223 196 93 111 115 99 86 75 60 71 58 53 42 29 22 15 13 12 8 6
288 270 264 230 249 316 266 259 260 225 144 128 101 93 105 51 124 193 225 232 232 250 51 186 164 121 120 111 103 94 94 74 82 59 61 56 33 37 26 20 38 12 13 16
241 240 292 293 318 8 357 243 138 149 149 116 101 125 165 187 209 201 216 248 341 139 199 138 132 126 110 109 101 100 98 83 93 69 64 61 42 44 38 32 45 25 18 22
251 239 253 265 274 272 260 235 215 193 160 195 139 185 202 152 222 223 186 212 170 218 126 141 131 114 112 121 110 111 109 86 98 81 66 65 47 52 49 37 51 34 27 26